www.pogodaiklimat.ru
ПОГОДА на Авиабазе Уоррен
Время
и дата
12:55 20.03
13:55 20.03
14:55 20.03
15:55 20.03
16:55 20.03
17:55 20.03
18:55 20.03
19:49 20.03
19:55 20.03
20:55 20.03
21:55 20.03
22:11 20.03
22:21 20.03
22:55 20.03
23:55 20.03
00:55 21.03
01:20 21.03
01:22 21.03
01:55 21.03
02:55 21.03
03:55 21.03
04:55 21.03
05:55 21.03
06:55 21.03
08:55 21.03
09:55 21.03
10:55 21.03
11:55 21.03
12:55 21.03
13:55 21.03
14:55 21.03
15:55 21.03
16:55 21.03
17:55 21.03
18:55 21.03
19:55 21.03
20:55 21.03
21:55 21.03
22:55 21.03
23:55 21.03
00:25 22.03
00:42 22.03
00:55 22.03
01:55 22.03
02:55 22.03
02:58 22.03
03:27 22.03
04:55 22.03
Ветер
(напр.,м/с)
Видим. Явления Облачность Т
(С)
Тd
(С)
f
(%)
Тe
(С)
Тes
(С)
Комфортность P
(гПа)
Po
(гПа)
Тmin
(С)
Tmax
(С)
R
(мм)
R24
(мм)
S
(см)
Ю 7 16 км 8/5
[Ac]
+6.6 -11.6 26 +3 +4 1006.0 801.3
Ю 8
{10}
16 км 5/0
[Ac]
+7.8 -11.0 25 +4 +5 1005.3 800.7
Ю 8
{10}
16 км 2/0
[Ac]
+8.9 -10.1 25 +5 +7 1004.2 799.9
ЮЗ 7 16 км 5/0
[Ac]
+8.5 -10.4 25 +5 +6 1004.2 799.9
Ю 4 16 км 5/0
[Ac]
+7.6 -11.2 25 +5 +7 1005.5 799.9 +4.7 +10.0
штиль 0 16 км 8/0
[Ac]
+5.7 -5.9 43 +6 +6 1005.5 799.9
ЮЗ 5 16 км 8/8 +3.5 -3.3 61 -1 -1 1006.2 800.5
Ю 6
{9}
14 км слабый дождь 8/8
[Ns]
+4.0 -4.0 56 -1 -1 1005.3 800.7
Ю 4
{9}
16 км слабый дождь 8/8
[Ns]
+3.8 -4.2 56 0 0 1004.9 800.5
Ю 5 16 км 8/8 +3.0 -3.8 61 -2 -2 1005.3 800.7
Ю 4 16 км 8/8 +2.6 -4.0 62 -2 -2 1004.9 800.5
Ю 3 16 км слабый дождь 8/8
[Ns]
+3.0 -5.0 56 0 0 1004.9 800.5
Ю 3 16 км 8/8 +3.0 -8.0 44 0 0 1004.9 800.5
ЮВ 4 16 км 8/8 +1.8 -7.5 50 -3 -3 1004.2 799.9 +1.8 +7.5
В 3 16 км 8/0
[Ac]
+1.3 -11.2 39 -2 -2 1002.6 799.1
Ю 2 16 км 8/0
[Ac]
+0.7 -9.9 45 -2 -2 1003.3 799.7
ЮЗ 2 16 км слабый дождь 8/0
[Ac As]
+1.0 -10.0 44 -2 -2 1003.6 799.9
ЮЗ 2 16 км слабый снег 8/8
[Ns]
+1.0 -9.0 47 -2 -2 1003.6 799.9
ЮЗ 2 14 км 8/8 -0.9 -5.7 70 -4 -4 1004.2 799.9
штиль 0 14 км 8/8 -1.4 -4.6 79 -2 -2 1003.6 799.9
СЗ 5 16 км 8/8 +0.1 -5.3 67 -6 -6 1003.6 799.9
З 5 16 км 8/0
[Ac]
-1.7 -8.9 58 -8 -8 1004.9 800.5 -2.0 +2.1
З 10 16 км 5/0
[Ac]
-1.9 -10.0 54 -10 -10 1005.9 800.7
З 10
{11}
16 км ясно -0.7 -9.8 50 -8 -8 1007.6 801.5
З 7 16 км ясно +3.8 -11.8 31 -1 0 1006.8 802.4
З 10
{17}
16 км 2/0
[Ac]
+6.6 -14.8 20 +2 +2 1005.8 802.1
З 13
{20}
16 км 2/0
[Ac]
+7.4 -15.4 18 +2 +2 1006.1 801.8 -2.1 +7.5
З 13
{18}
16 км 5/2
[Ac]
+8.0 -16.3 16 +3 +3 1005.8 802.1
З 13
{15}
16 км 5/2
[Ac]
+8.2 -16.2 16 +3 +3 1005.7 801.5
З 12
{16}
16 км 5/0
[Ac]
+9.4 -15.2 16 +5 +5 1005.4 801.3
З 10
{12}
16 км 5/0
[Ac]
+8.6 -15.1 17 +5 +5 1006.1 801.8
З 10
{14}
16 км 5/0
[Ac]
+7.5 -16.0 17 +3 +3 1006.4 802.1
З 9
{12}
16 км 8/0
[Ac]
+6.8 -14.6 20 +2 +3 1007.4 802.4 +6.8 +9.5
З 4 16 км 8/0
[Ac]
+5.2 -13.3 25 +2 +3 1008.4 802.6
З 4 16 км 10/0
[Ac]
+4.5 -13.9 25 +1 +1 1009.1 803.2
С 5 16 км 8/0
[Ac]
+0.9 -10.3 43 -4 -4 1008.4 802.6
СВ 4 16 км 10/0
[Ac]
+0.4 -9.3 48 -4 -4 1009.8 803.7
СВ 4 16 км 10/0
[Ac]
+0.2 -9.3 49 -4 -4 1008.8 803.4
СВ 3 16 км 10/8
[Ac]
-0.7 -10.1 49 -5 -5 1010.2 804.5 -0.7 +6.9
СВ 3 16 км 8/8 -1.1 -7.7 61 -6 -6 1010.0 804.8
С 2 16 км слабый снег 10/8
[Ac Ns]
-1.0 -8.0 59 -4 -4 1009.3 804.2
СЗ 3 14 км 10/5
[Ac]
-2.0 -7.0 69 -7 -7 1009.2 803.7
СЗ 2 16 км 8/8 -2.1 -6.7 71 -6 -6 1009.2 803.7
ЮЗ 2 16 км 10/0
[Ac]
-2.3 -6.1 75 -6 -6 1008.6 803.7
Ю 5 16 км 8/8 -0.8 -7.8 59 -7 -7 1008.6 803.7
Ю 8 16 км слабый снег н/о -1.0 -8.0 59 -8 -8 1008.6 803.7
Ю 3 3 км слабый снег, дымка н/о -3.0 -5.0 86 -8 -8 1008.5 803.2
штиль 0 16 км 8/8 -3.2 -4.3 92 -4 -4 1009.1 803.2 -3.5 -0.7
Местоположение метеостанции Warren Air Force Base: широта 41.1409 долгота -104.8691 высота над уровнем моря 1877 м.
В архиве по умолчанию представлена погода на Авиабазе Уоррен за последние 1-2 суток. Обновление информации о фактической погоде в базе происходит ежечасно! Архивные данные за месяц целиком и за предыдущие месяцы Вы можете получить, выбрав интересующий диапазон дат из раскрывающегося списка и нажав кнопку "Ввод!".
Внимание! Архив погоды МЕТАР в базе сайта по станциям, не включенным в климатический монитор, хранится не более 60 дней. Нет смысла пытаться выбрать более раннюю дату.
*Определитесь, кто Вы:
Внимание! Время в таблицах - местное (без учета летнего времени). Для получения всемирного времени необходимо вычесть поправку, которая равна -7 ч.
Смотрите также архив погоды в соседних городах и на ближайших метеорологических станциях:
Партнеры нашего сайта:      
Пояснения к столбцам:
  • Ветер - указаны скорость ветра в м/с - средняя за 10 мин, порывы в срок и между сроками (в фигурных скобках) и направление, откуда дует ветер: С - северный,
  • СВ - северо-восточный, В - восточный, ЮВ - юго-восточный, Ю - южный, ЮЗ - юго-западный, З - западный, СЗ - северо-западный.
  • Видимость - горизонтальная дальность видимости в метрах или километрах. При видимости от 1 до 10 км при отсутствии осадков обычно наблюдается дымка, при ухудшении видимости до 1 км и менее - туман. В сухую погоду видимость может ухудшаться дымом, пылью или мглою.
  • Явления - указаны атмосферные явления, наблюдавшиеся в срок или в последний час перед сроком; фигурными скобками обозначены явления, наблюдавшиеся между сроками (за 1-3 часа до срока); квадратными скобками обозначены град или гололедные отложения с указанием их диаметра в мм.
  • Облачность - указаны через наклонную черту общая и нижняя облачность в баллах и высота нижней границы облаков в метрах; квадратными скобками обозначены формы облаков: Ci - перистые, Cs - перисто-слоистые, Cc - перисто-кучевые, Ac - высококучевые, As - высокослоистые, Sc - слоисто-кучевые, Ns - слоисто-дождевые, Cu - кучевые, Cb - кучево-дождевые. Подробнее классификацию облаков см. в Атласе облаков (PDF).
  • T - Температура воздуха - температура, измеренная на высоте 2 м над землей.
  • Td - Температура точки росы - температура, при понижении до которой содержащийся в воздухе водяной пар достигнет насыщения.
  • f - Относительная влажность воздуха - влажноcть воздуха, измеренная на высоте 2 м над землей.
  • Te - Эффективная температура - температура, которую ощущает одетый по сезону человек в тени. Характеристика душности погоды. При расчете учитывается влияние влажности воздуха и скорости ветра на теплоощущения человека.
  • Tes - Эффективная температура на солнце - температура, которую ощущает человек, с поправкой на солнечный нагрев. Характеристика знойности погоды. Зависит от высоты солнца над горизонтом, облачности и скорости ветра. Ночью, в пасмурную погоду, а также при ветре 12 м/с и более поправка равна нулю.
  • P - Атмосферное давление - приведенное к уровню моря атмосферное давление.
  • Po - Атмосферное давление - измеренное на уровне метеостанции атмосферное давление.
  • Tmin - Минимальная температура - минимум температуры воздуха на высоте 2 м над землей.
  • Tmax - Максимальная температура - максимум температуры воздуха на высоте 2 м над землей.
  • R - Количество осадков - Количество выпавших осадков за период времени, мм. При наведении курсора мыши на число - период времени, за который выпало указанное количество осадков.
  • R24 - Количество осадков - Количество выпавших осадков за 24 часа, мм.
  • S - Снежный покров - Высота снежного покрова, см. При наведении курсора мыши на число - состояние снежного покрова и степень покрытия местности в баллах.